Deer Park, WA

3:50 PM PDT on August 28, 2016 (GMT -0700)
Deer Park

Weather History for KDEW - April, 2013

Change the Weather History Date:

Tuesday, April 30, 2013

  Actual Average Record
Temperature  
Mean Temperature 34 °F 48 °F  
Max Temperature 48 °F 62 °F 72 °F (2004)
Min Temperature 20 °F 34 °F 20 °F (2013)
Degree Days  
Heating Degree Days 31 17  
Month to date heating degree days 571 605  
Since 1 July heating degree days 6476 6811  
Cooling Degree Days 0 0  
Month to date cooling degree days 0 0  
Year to date cooling degree days 0 0  
Moisture  
Dew Point 24 °F    
Average Humidity 65    
Maximum Humidity 92    
Minimum Humidity 37    
Precipitation  
Precipitation 0.02 in 0.04 in 0.31 in (2001)
Month to date precipitation 1.76 1.58  
Year to date precipitation 5.24 7.90  
Sea Level Pressure  
Sea Level Pressure 30.15 in    
Wind  
Wind Speed 4 mph (WSW)    
Max Wind Speed 18 mph    
Max Gust Speed 24 mph    
Visibility 10 miles    
Events Rain , Snow    
T = Trace of Precipitation, MM = Missing Value Source: NWS Daily Summary

Daily Weather History Graph

Daily Weather History Graph

Search for Another Location

Airport or City:

Trip Planner

Search our weather history database for the weather conditions in past years. The results will help you decide how hot, cold, wet, or windy it might be!

Date:

Astronomy

Apr. 30, 2013 Rise Set
Actual Time 5:32 AM PDT 8:01 PM PDT
Civil Twilight 4:58 AM PDT 8:36 PM PDT
Nautical Twilight 4:14 AM PDT 9:20 PM PDT
Astronomical Twilight 3:24 AM PDT 10:11 PM PDT
Moon 12:33 AM PDT (4/30) 10:02 AM PDT (4/30)
Length of Visible Light 15h 38m
Length of Day
14h 29m
Waning Gibbous, 69% of the Moon is Illuminated
Apr 30
Waning Gibbous
May 2
Last Quarter
May 9
New
May 17
First Quarter
May 24
Full

Hourly Weather History & Observations

Time (PDT) Temp. Windchill Dew Point Humidity Pressure Visibility Wind Dir Wind Speed Gust Speed Precip Events Conditions
12:53 AM 33.1 °F 26.9 °F 19.0 °F 56% 29.97 in 10.0 mi WNW 6.9 mph - N/A   Clear
1:53 AM 30.0 °F 26.5 °F 19.0 °F 64% 29.98 in 10.0 mi West 3.5 mph - N/A   Clear
2:53 AM 23.0 °F 18.4 °F 17.1 °F 78% 30.00 in 10.0 mi NNE 3.5 mph - N/A   Clear
3:53 AM 23.0 °F 18.4 °F 17.1 °F 78% 30.01 in 10.0 mi West 3.5 mph - N/A   Clear
4:53 AM 21.0 °F 16.2 °F 17.1 °F 85% 30.03 in 10.0 mi West 3.5 mph - N/A   Clear
5:53 AM 21.9 °F 17.2 °F 18.0 °F 85% 30.05 in 10.0 mi ESE 3.5 mph - N/A   Clear
6:53 AM 30.9 °F - 23.0 °F 72% 30.06 in 10.0 mi Calm Calm - N/A   Clear
7:53 AM 35.1 °F 29.3 °F 23.0 °F 61% 30.08 in 10.0 mi South 6.9 mph - N/A   Clear
8:53 AM 41.0 °F 38.0 °F 23.0 °F 49% 30.08 in 10.0 mi SSE 4.6 mph - N/A   Clear
9:53 AM 44.1 °F 40.1 °F 21.0 °F 40% 30.08 in 10.0 mi Variable 6.9 mph - N/A   Clear
10:53 AM 45.0 °F 40.6 °F 19.9 °F 37% 30.10 in 10.0 mi West 8.1 mph - N/A   Mostly Cloudy
11:53 AM 44.1 °F 41.5 °F 21.0 °F 40% 30.11 in 10.0 mi East 4.6 mph - N/A   Mostly Cloudy
12:53 PM 39.9 °F 31.8 °F 30.0 °F 68% 30.16 in 10.0 mi NNE 15.0 mph 23.0 mph 0.01 in   Overcast
1:14 PM 37.4 °F 30.3 °F 30.2 °F 75% 30.11 in 9.0 mi ENE 10.4 mph - 0.00 in Snow Light Snow
1:53 PM 37.9 °F 30.9 °F 30.0 °F 73% 30.19 in 5.0 mi SSW 10.4 mph - 0.01 in Snow Light Snow
2:53 PM 37.9 °F 29.6 °F 30.9 °F 76% 30.24 in 9.0 mi NNW 13.8 mph 24.2 mph 0.00 in Rain Light Rain
2:57 PM 37.4 °F 31.4 °F 30.2 °F 75% 30.17 in 7.0 mi NNW 8.1 mph 24.2 mph 0.00 in Snow Light Snow
3:25 PM 39.2 °F 32.0 °F 30.2 °F 70% 30.15 in 10.0 mi SSE 11.5 mph - 0.00 in   Overcast
3:53 PM 43.0 °F 41.3 °F 30.0 °F 60% 30.21 in 10.0 mi SW 3.5 mph - 0.00 in   Overcast
4:53 PM 43.0 °F 38.8 °F 28.0 °F 56% 30.23 in 10.0 mi South 6.9 mph - N/A   Partly Cloudy
5:53 PM 45.0 °F 43.5 °F 23.0 °F 42% 30.25 in 10.0 mi West 3.5 mph - N/A   Clear
6:53 PM 45.0 °F 42.6 °F 21.9 °F 40% 30.26 in 10.0 mi NNW 4.6 mph - N/A   Clear
7:53 PM 42.1 °F - 26.1 °F 53% 30.27 in 10.0 mi Calm Calm - N/A   Partly Cloudy
8:53 PM 30.9 °F - 25.0 °F 79% 30.30 in 10.0 mi Calm Calm - N/A   Clear
9:53 PM 28.0 °F - 24.1 °F 85% 30.33 in 10.0 mi Calm Calm - N/A   Clear
10:53 PM 27.0 °F - 24.1 °F 89% 30.35 in 10.0 mi Calm Calm - N/A   Clear
11:53 PM 26.1 °F - 24.1 °F 92% 30.38 in 10.0 mi Calm Calm - N/A   Clear